Probability
97 97 97 100 100 94 97 97 94 97 97 94 90 90 90 87 84 81 94 97 97 100 100 100 97 97 100 100 100 100 100 97 97 97 94 94 94 97 100 100 100 100 100
87 90 94 97 94 94 90 94 87 90 94 94 87 84 94 87 90 94 90 94 97 97 94 94 94 97 100 97 97 100 100 97 97 90 90 94 97 97 100 100 100 100 100
84 87 87 90 97 87 84 90 77 84 87 87 90 94 94 90 87 100 94 94 94 90 94 94 97 97 97 94 94 94 90 90 94 94 90 87 90 94 94 94 97 97 94
58 71 71 77 77 84 84 84 81 81 84 77 84 81 84 97 94 97 94 90 87 87 84 87 87 87 94 94 94 90 90 94 94 84 81 81 87 87 87 81 81 81 71
52 52 61 68 74 71 58 52 55 68 74 74 52 68 68 77 74 71 71 71 77 77 74 81 90 90 81 87 100 94 90 90 94 87 81 87 81 77 84 77 71 55 45
35 45 48 45 48 52 52 55 52 65 61 58 29 29 45 58 55 52 52 45 52 61 58 61 65 74 81 81 81 84 90 90 87 81 81 77 84 77 65 61 52 52 35
29 39 29 39 48 39 39 23 23 29 39 45 26 19 13 19 26 29 32 29 19 29 42 52 71 71 84 74 71 74 77 81 87 90 87 84 84 84 68 55 32 39 32
16 19 32 26 35 48 29 29 39 29 26 19 13 10 10 6 6 6 13 13 19 23 29 32 55 74 71 71 58 61 77 77 77 87 84 81 84 77 68 58 35 32 32
16 26 23 29 32 26 29 39 45 35 29 16 16 3 3 3 3 3 6 10 23 26 32 29 29 45 61 65 68 48 58 68 74 74 77 77 74 58 58 52 48 35 29
3 13 13 16 26 26 32 29 19 26 39 23 19 23 3 0 0 0 0 0 10 19 16 10 10 29 39 45 61 35 35 39 48 61 71 74 77 61 52 52 48 42 32
3 3 10 16 16 23 19 23 26 32 35 29 23 16 6 6 3 0 0 0 3 3 6 10 3 10 16 29 65 35 26 19 29 39 61 65 68 68 65 52 52 55 52
6 0 3 6 13 16 19 29 29 35 42 39 29 26 19 16 6 0 0 0 0 0 3 0 3 10 16 19 16 16 10 3 0 3 19 35 48 55 55 52 55 52 52
0 0 0 0 3 3 6 16 26 29 39 39 48 39 23 26 16 10 0 0 0 0 0 0 3 3 6 23 35 0 0 0 0 0 0 6 16 26 29 35 39 45 48
0 0 0 0 0 0 0 3 10 19 26 35 29 35 35 23 16 19 13 10 3 0 0 0 3 10 13 19 6 0 13 0 0 0 0 0 0 0 6 10 10 16 29
0 0 0 0 0 0 0 0 3 3 10 19 26 26 19 16 26 29 16 16 19 10 6 3 3 6 19 19 0 13 23 0 0 0 0 0 0 0 0 0 3 3 6
0 0 0 0 0 0 0 0 0 0 0 6 13 19 29 19 23 29 26 29 23 16 13 10 16 10 19 3 3 10 6 0 0 0 0 0 0 0 0 0 0 0 0
0 0 0 0 0 0 0 0 0 0 0 0 0 0 3 10 26 29 29 32 35 32 16 16 16 16 19 16 3 6 3 0 0 0 0 0 0 0 0 0 0 0 0
0 0 0 0 0 0 0 0 0 0 0 0 0 0 0 0 3 19 23 19 26 29 26 23 19 16 39 32 16 13 3 0 0 0 0 0 0 0 0 0 0 0 0
0 0 0 0 0 0 0 0 0 0 0 0 0 0 0 0 3 3 10 13 6 6 19 19 23 39 29 19 16 10 3 6 0 0 0 0 0 0 0 0 0 0 0
0 0 0 0 0 0 0 0 0 0 0 0 0 0 0 0 0 0 3 6 13 6 10 19 16 26 32 16 3 10 3 0 0 0 0 0 0 0 0 0 0 0 0
0 0 0 0 0 0 0 0 0 0 0 0 0 0 0 0 0 0 0 0 0 6 3 10 13 23 29 13 6 10 3 3 6 0 0 0 0 0 0 0 0 0 0
0 0 0 0 0 0 0 0 0 0 0 0 0 0 0 0 0 0 0 0 0 0 0 0 6 10 19 13 13 6 6 0 0 0 0 0 0 0 0 0 0 0 0
0 0 0 0 0 0 0 0 0 0 0 0 0 0 0 0 0 0 0 0 0 0 0 0 3 0 10 19 10 6 6 0 3 0 0 0 0 0 0 0 0 0 0
0 0 0 0 0 0 0 0 0 0 0 0 0 0 0 0 0 0 0 0 0 0 0 0 0 0 0 19 16 10 6 13 0 3 0 0 0 0 0 0 0 0 0
0 0 0 0 0 0 0 0 0 0 0 0 0 0 0 0 0 0 0 0 0 0 0 0 0 0 0 0 0 6 0 0 0 0 0 0 0 0 0 0 0 0 0
0 0 0 0 0 0 0 0 0 0 0 0 0 0 0 0 0 0 0 0 0 0 0 0 0 0 0 0 0 0 0 0 0 0 0 0 0 0 0 0 0 0 0
Height
5859 5859 5859 5859 5859 5859 5859 5859 5859 5860 5861 5861 5862 5863 5863 5864 5865 5866 5867 5868 5869 5871 5872 5874 5876 5877 5878 5879 5881 5882 5884 5885 5887 5889 5891 5893 5895 5896 5898 5900 5902 5904 5905
5850 5850 5851 5851 5851 5851 5852 5852 5853 5854 5855 5855 5856 5857 5858 5858 5859 5861 5861 5863 5864 5866 5867 5869 5871 5872 5873 5874 5876 5877 5879 5880 5882 5884 5886 5889 5891 5893 5895 5896 5898 5900 5902
5840 5840 5841 5842 5843 5843 5844 5845 5846 5847 5848 5849 5850 5851 5852 5853 5854 5855 5857 5858 5859 5861 5862 5864 5866 5867 5868 5870 5871 5873 5874 5875 5877 5879 5881 5883 5886 5888 5890 5892 5894 5896 5898
5831 5831 5832 5833 5834 5834 5836 5837 5838 5839 5841 5842 5843 5845 5846 5847 5849 5850 5852 5853 5855 5856 5857 5859 5861 5862 5864 5865 5866 5868 5869 5870 5872 5874 5876 5878 5880 5883 5885 5887 5890 5892 5894
5820 5821 5822 5824 5825 5826 5828 5829 5831 5832 5834 5835 5837 5838 5840 5841 5843 5845 5847 5848 5850 5851 5853 5854 5856 5857 5859 5860 5862 5863 5864 5865 5867 5868 5870 5872 5874 5877 5880 5882 5884 5887 5889
5812 5812 5813 5815 5816 5818 5819 5821 5823 5825 5827 5829 5830 5832 5834 5836 5838 5839 5841 5843 5845 5846 5848 5850 5851 5853 5854 5856 5857 5858 5859 5860 5862 5863 5865 5866 5868 5871 5873 5876 5879 5881 5884
5805 5804 5805 5807 5809 5810 5811 5813 5815 5817 5819 5822 5824 5826 5828 5830 5832 5834 5836 5838 5840 5842 5843 5845 5847 5849 5850 5851 5853 5854 5855 5856 5857 5858 5859 5860 5862 5865 5867 5869 5872 5875 5878
5799 5799 5799 5799 5800 5801 5803 5805 5807 5809 5812 5814 5816 5818 5821 5824 5826 5828 5830 5832 5835 5837 5839 5840 5842 5844 5845 5847 5848 5849 5850 5851 5852 5853 5854 5855 5857 5858 5860 5863 5865 5868 5871
5793 5792 5791 5792 5793 5794 5795 5797 5799 5802 5804 5807 5809 5811 5814 5816 5819 5822 5824 5826 5829 5831 5833 5835 5837 5839 5840 5842 5843 5845 5846 5847 5848 5848 5849 5850 5851 5853 5854 5857 5859 5861 5864
5785 5784 5784 5784 5785 5786 5787 5789 5791 5794 5796 5798 5801 5804 5806 5809 5812 5815 5817 5820 5822 5825 5827 5829 5831 5834 5835 5837 5838 5840 5841 5842 5843 5844 5844 5845 5846 5847 5849 5850 5852 5855 5857
5776 5775 5775 5776 5777 5777 5779 5780 5783 5785 5787 5790 5793 5795 5798 5801 5804 5807 5810 5813 5816 5819 5821 5823 5826 5828 5830 5832 5833 5835 5837 5838 5839 5839 5840 5841 5841 5842 5843 5844 5846 5848 5850
5765 5765 5765 5766 5766 5767 5769 5771 5773 5775 5778 5781 5783 5786 5789 5792 5795 5799 5802 5805 5808 5812 5815 5817 5820 5822 5824 5826 5828 5830 5832 5833 5834 5834 5835 5836 5836 5837 5838 5839 5840 5842 5844
5752 5752 5753 5753 5754 5756 5757 5759 5762 5765 5767 5770 5773 5776 5779 5783 5786 5790 5793 5797 5800 5804 5807 5810 5813 5816 5818 5821 5823 5825 5827 5828 5829 5830 5830 5831 5831 5831 5832 5833 5834 5835 5837
5736 5736 5737 5739 5740 5742 5744 5746 5749 5752 5755 5758 5762 5765 5768 5772 5776 5780 5784 5787 5791 5795 5799 5803 5806 5809 5812 5814 5817 5819 5821 5823 5824 5825 5825 5826 5826 5826 5826 5827 5828 5829 5830
5720 5719 5720 5721 5723 5725 5728 5731 5734 5737 5740 5744 5748 5752 5756 5760 5765 5769 5773 5777 5782 5786 5790 5794 5798 5801 5804 5808 5810 5812 5815 5817 5818 5819 5820 5820 5820 5820 5821 5821 5822 5823 5824
5702 5702 5702 5703 5704 5707 5710 5713 5717 5720 5725 5729 5733 5738 5743 5748 5752 5757 5762 5766 5771 5775 5780 5784 5788 5792 5796 5800 5803 5805 5808 5810 5812 5813 5814 5814 5815 5815 5815 5815 5816 5817 5818
5684 5683 5683 5684 5685 5688 5690 5694 5698 5702 5707 5711 5716 5722 5727 5733 5738 5743 5749 5754 5759 5764 5769 5774 5778 5782 5787 5791 5795 5798 5801 5803 5806 5807 5808 5809 5809 5809 5809 5810 5810 5811 5812
5665 5664 5664 5665 5666 5668 5671 5674 5678 5682 5687 5693 5698 5703 5710 5716 5722 5728 5733 5740 5746 5752 5757 5763 5767 5772 5777 5782 5786 5790 5793 5796 5798 5800 5802 5802 5803 5803 5803 5804 5804 5805 5806
5646 5645 5645 5646 5647 5649 5651 5654 5658 5662 5667 5673 5678 5684 5691 5698 5705 5711 5717 5724 5731 5738 5744 5750 5756 5761 5766 5772 5777 5781 5785 5789 5791 5793 5795 5796 5797 5797 5798 5798 5799 5800 5801
5627 5626 5626 5627 5628 5630 5632 5635 5638 5643 5647 5653 5659 5665 5672 5678 5686 5693 5700 5708 5715 5723 5730 5737 5744 5750 5755 5761 5767 5772 5777 5780 5783 5786 5788 5790 5791 5791 5792 5793 5793 5794 5795
5606 5606 5606 5607 5608 5610 5613 5617 5620 5624 5629 5635 5640 5646 5653 5659 5667 5675 5683 5691 5699 5707 5716 5724 5731 5738 5744 5750 5757 5762 5767 5771 5775 5778 5781 5783 5784 5785 5786 5786 5787 5788 5789
5586 5586 5587 5588 5589 5592 5595 5598 5603 5607 5612 5617 5623 5628 5635 5641 5648 5656 5665 5673 5682 5691 5701 5709 5718 5725 5733 5739 5746 5752 5757 5762 5767 5771 5773 5776 5778 5779 5780 5780 5781 5782 5783
5567 5567 5567 5569 5571 5574 5577 5581 5585 5590 5596 5601 5607 5612 5618 5624 5631 5638 5647 5656 5665 5675 5685 5695 5704 5713 5721 5728 5735 5742 5747 5752 5757 5761 5765 5768 5771 5773 5774 5775 5776 5777 5778
5549 5549 5549 5551 5553 5557 5560 5565 5569 5574 5580 5586 5592 5597 5603 5608 5615 5622 5630 5638 5648 5659 5671 5681 5691 5701 5708 5715 5723 5730 5736 5742 5748 5753 5757 5761 5764 5766 5768 5769 5770 5771 5772
5534 5533 5533 5535 5538 5541 5545 5550 5555 5560 5567 5573 5579 5584 5589 5595 5600 5607 5614 5624 5633 5643 5653 5665 5676 5685 5694 5703 5711 5719 5726 5733 5739 5745 5749 5754 5757 5759 5761 5763 5764 5765 5767
5520 5519 5519 5521 5524 5528 5532 5537 5542 5548 5555 5561 5567 5572 5578 5583 5587 5593 5600 5608 5617 5627 5638 5649 5660 5671 5682 5691 5700 5709 5717 5724 5730 5736 5741 5746 5749 5752 5754 5756 5758 5759 5761
Wind_Speed
37 37 36 34 32 30 29 28 26 25 25 24 24 23 23 22 21 22 22 22 22 22 23 22 22 22 23 23 23 25 25 23 23 23 22 21 20 19 19 19 18 17 17
38 39 37 35 34 33 31 29 27 27 26 26 25 25 24 23 22 22 22 22 22 22 22 23 23 22 22 23 24 24 25 26 24 24 24 24 23 22 21 20 20 19 19
40 39 38 37 36 35 33 31 29 29 28 27 25 24 24 23 22 22 22 21 21 21 22 22 22 22 22 22 22 23 24 26 26 25 24 25 26 25 24 22 21 21 20
40 40 40 39 37 36 35 33 32 30 29 28 26 25 24 23 23 22 21 21 20 21 22 22 21 22 21 21 21 21 22 24 25 25 26 25 27 27 26 25 24 23 22
37 37 38 38 36 36 35 34 33 31 30 29 27 26 25 24 24 23 22 21 21 21 21 21 20 20 21 21 21 21 21 22 22 24 25 26 27 28 28 28 27 26 25
32 33 35 35 34 33 33 33 33 31 30 30 28 27 26 25 25 24 23 22 21 21 21 20 20 19 19 19 19 19 20 21 21 23 24 25 26 28 29 29 29 28 28
27 28 29 31 32 32 32 33 32 32 31 30 29 28 27 27 26 25 24 23 22 22 21 20 20 19 18 18 18 18 19 19 20 20 22 24 26 27 30 30 30 30 30
25 26 27 28 29 30 30 30 32 31 30 29 29 29 28 28 27 26 25 24 24 23 22 22 21 19 19 18 17 17 18 18 18 19 20 22 25 26 29 31 31 30 31
27 28 28 29 30 29 29 30 31 31 31 29 30 30 29 29 29 28 27 26 25 25 24 23 22 20 19 18 18 17 17 17 17 18 19 20 22 24 26 29 31 32 32
32 31 31 31 31 32 31 31 31 32 32 31 31 31 31 30 30 30 29 28 28 27 26 25 23 22 21 20 19 18 17 17 17 18 18 19 20 23 24 26 28 31 32
38 36 34 34 35 34 34 34 34 35 34 34 33 33 33 33 32 32 32 31 30 29 28 27 25 24 23 21 20 19 18 18 17 18 18 18 19 21 22 24 26 28 29
43 42 41 39 40 40 39 39 39 38 38 37 37 36 36 35 35 35 35 34 33 32 31 29 28 26 25 23 21 20 19 18 18 18 18 18 19 21 22 23 25 27 29
48 48 46 45 44 44 44 44 43 43 42 42 41 40 39 38 38 38 38 37 36 36 34 33 31 29 27 25 23 22 21 20 19 19 19 19 20 21 22 23 24 26 28
52 52 51 51 50 50 49 49 49 48 47 46 45 45 44 43 42 41 41 40 39 39 38 37 35 33 31 28 26 24 23 22 20 20 20 20 20 21 22 22 23 25 27
54 54 55 55 55 55 55 55 54 54 53 52 51 50 49 47 46 45 45 43 42 41 41 40 38 36 34 32 29 27 25 23 22 21 20 20 20 21 21 22 23 23 25
54 55 56 57 58 59 60 60 60 60 59 57 56 55 53 52 51 50 49 47 46 44 44 43 42 40 37 34 33 30 28 26 24 23 22 21 21 21 22 22 23 23 23
53 54 54 56 58 60 62 63 64 64 64 63 61 60 59 58 56 54 52 51 50 48 46 45 44 43 40 38 36 33 31 28 26 25 24 22 22 22 22 23 24 24 24
52 53 53 54 55 58 60 62 64 67 68 68 67 65 64 63 61 60 58 56 54 52 51 49 47 46 44 41 39 36 33 31 29 27 25 24 23 23 22 23 23 23 24
51 52 52 53 53 55 56 58 61 64 67 68 69 69 69 68 67 65 63 60 58 56 55 53 51 49 47 44 42 39 36 33 31 29 27 25 24 23 23 23 23 23 23
51 51 51 52 53 54 55 55 57 59 61 64 67 68 69 70 70 69 67 65 63 60 58 56 54 51 49 47 44 41 39 36 33 31 29 27 25 24 24 23 23 23 23
50 50 50 51 51 53 54 54 55 56 58 60 62 65 67 69 71 71 70 68 67 64 62 60 57 54 51 49 46 44 41 38 36 33 30 28 27 25 24 24 23 23 23
47 47 47 48 49 51 52 53 54 54 55 57 58 59 62 65 69 70 71 71 70 67 65 64 61 56 53 50 48 46 43 41 38 35 32 30 28 26 24 23 22 22 22
45 45 45 46 46 47 49 50 52 53 53 54 55 55 57 59 62 66 69 70 70 69 68 66 63 60 55 52 50 47 45 43 40 37 34 31 29 27 25 23 22 21 21
40 40 41 42 44 44 45 47 48 49 50 50 50 51 52 54 55 59 63 67 68 68 68 66 64 61 58 55 52 49 46 44 42 39 35 32 30 28 26 25 23 22 21
35 36 36 38 39 40 41 43 44 44 45 46 47 47 47 49 52 53 57 61 64 66 67 67 65 63 60 56 53 50 47 45 42 39 36 33 31 29 27 25 24 23 23
30 31 31 33 33 35 37 38 39 39 39 40 41 42 42 43 46 48 50 54 57 60 63 66 66 64 60 57 54 51 47 45 43 39 36 33 31 29 27 26 25 23 22
Wind_Direction
275 274 273 271 270 270 269 267 266 264 260 258 257 255 253 251 252 251 250 249 247 245 244 245 245 245 245 244 244 238 235 235 235 233 232 233 233 233 233 235 234 233 232
274 274 269 266 266 268 266 265 262 261 260 258 256 252 250 250 249 249 247 246 245 244 244 244 244 245 246 245 244 242 237 234 236 236 236 234 234 234 235 235 236 235 234
273 272 268 264 263 263 264 263 259 258 257 256 253 252 249 247 247 246 246 245 243 240 241 242 243 244 246 245 244 244 242 239 239 239 238 237 235 235 236 236 237 237 237
272 268 266 263 261 261 261 260 258 257 255 253 250 249 245 245 244 242 242 241 241 241 240 240 243 243 243 244 246 245 243 242 241 242 240 238 237 235 235 236 237 238 238
269 266 266 263 260 260 261 259 256 254 252 249 247 245 243 243 242 240 239 239 239 240 240 239 240 242 242 244 247 247 248 249 246 244 244 241 238 236 236 237 238 238 238
269 264 265 261 258 260 260 258 255 252 250 248 246 244 243 242 240 239 239 238 238 238 239 238 237 238 240 244 248 249 250 253 251 249 248 246 243 241 237 238 239 238 238
270 266 262 260 258 258 259 256 253 251 249 247 244 244 243 241 239 238 238 237 236 236 237 237 237 237 239 244 248 251 252 253 253 254 252 249 247 246 241 238 238 237 237
272 268 263 261 259 258 256 252 248 246 246 245 243 242 241 239 237 237 236 235 235 235 235 236 237 238 238 242 247 250 252 254 254 255 256 254 251 248 245 240 238 238 238
273 269 264 259 258 257 253 251 246 244 245 244 242 240 239 237 236 236 235 234 235 235 236 236 235 236 237 240 245 247 250 253 256 257 258 258 254 250 248 244 243 240 237
273 271 264 261 258 256 253 249 245 243 243 242 241 239 238 237 235 236 235 234 234 235 235 234 234 235 236 240 244 246 251 255 258 259 260 260 255 252 251 249 246 243 241
272 269 264 262 258 255 252 249 246 245 243 242 242 240 238 237 236 236 236 235 234 234 234 234 234 235 236 239 242 246 251 255 258 259 261 262 260 257 254 250 248 245 244
270 267 263 260 257 253 252 250 248 245 244 244 243 241 239 238 237 236 236 235 235 234 233 233 233 235 236 239 241 245 249 253 256 259 261 263 263 261 258 254 250 246 245
268 265 262 259 256 253 251 250 248 246 245 244 242 241 239 238 237 236 236 235 234 234 234 234 233 234 236 238 241 245 247 251 254 258 262 265 265 263 260 257 254 249 247
267 264 262 259 255 252 250 249 248 247 245 244 242 241 240 238 236 236 236 235 235 234 234 234 233 234 235 237 239 242 246 250 253 257 262 265 266 265 262 257 255 253 249
267 264 261 259 256 252 249 248 248 248 246 244 242 242 241 239 237 236 236 236 235 235 235 235 235 234 234 236 238 241 244 248 251 256 261 265 267 266 262 257 255 254 251
267 264 261 258 256 254 251 248 247 246 246 245 243 242 241 240 239 237 236 236 236 236 236 236 236 236 235 235 238 240 243 246 250 254 258 263 267 266 262 257 256 254 253
268 265 262 259 256 254 252 250 247 246 245 245 243 242 241 240 238 237 237 237 236 237 237 236 237 237 236 236 237 239 242 245 249 253 257 261 266 266 262 258 255 254 254
270 266 263 260 258 255 252 250 248 247 246 245 244 242 241 240 239 239 238 237 237 237 237 236 237 237 237 236 237 238 240 243 246 251 255 259 264 264 261 259 257 254 253
271 267 264 261 258 256 254 251 249 247 245 244 244 243 241 240 239 238 238 237 236 236 237 237 236 236 236 236 236 236 238 241 244 247 252 256 261 261 259 259 256 255 254
271 267 263 260 258 255 253 251 249 247 245 244 242 242 241 240 239 238 238 237 237 236 236 237 236 235 235 235 235 235 236 239 242 244 248 252 257 259 257 258 257 254 255
272 267 263 260 258 255 252 250 248 246 244 243 242 241 240 239 238 238 237 237 236 235 235 235 236 236 235 235 235 234 235 236 239 242 245 249 253 255 256 256 257 254 254
273 267 263 260 257 254 251 249 246 245 243 242 241 240 240 239 238 237 237 236 236 235 234 234 234 234 234 234 233 233 234 235 236 239 243 246 250 253 254 254 254 253 254
273 268 263 259 256 252 250 247 245 243 242 241 240 240 239 239 239 238 237 236 235 234 233 233 233 232 232 232 232 231 232 233 234 236 239 244 246 249 251 251 252 253 254
276 270 264 258 254 251 248 245 243 242 241 240 240 240 240 239 238 237 236 236 235 234 233 232 232 231 230 231 231 230 230 231 232 234 236 240 242 245 248 249 250 252 254
278 271 263 256 252 249 245 243 241 239 239 238 238 239 240 240 239 237 235 235 234 233 232 231 230 230 230 229 230 230 230 230 230 232 234 238 240 243 245 247 249 252 253
280 271 262 254 249 245 241 239 237 235 235 234 234 235 237 238 238 237 234 233 232 231 230 229 228 228 228 228 227 227 227 227 227 229 232 235 238 241 243 245 247 250 252